Вернуться в каталог

STARLINK-37235

АктивенСвязьVLEO
NORAD 69154·PAYLOAD·🇺🇸 United States

Запущен May 21, 2026 с Cape Canaveral Space Force Station

Loading…

Ближайшие Пролёты (ближайшие 24 часа)

TLE

СвежийSource: CelesTrak SupGP

Эпоха: Sep 15, 2026, 03:44 UTC

1 69154C 26111G   26258.15604167 -.00019762  00000+0 -58383-3 0  2583
2 69154  53.1578  90.9175 0000789  91.3908 344.2283 15.34402578    17

Отслеживайте STARLINK-37235 в реальном времени с AllMySat

Download on the App Store